| time (UTC) | temp C | wind direction | speed KPH | gust KPH | rain 1hr cm | rain 24hr cm | rain mn cm | humidity % | barometer mb |
| 20260506015005 | 15 | 143 | 0.0 | 1.6 | 0.00 | 0.00 | 0.00 | 71 | 1009.1 |
| 20260506014509 | 15 | 144 | 0.0 | 1.6 | 0.00 | 0.00 | 0.00 | 70 | 1009.0 |
| 20260506014004 | 15 | 143 | 0.0 | 1.6 | 0.00 | 0.00 | 0.00 | 70 | 1009.0 |
| 20260506013507 | 15 | 154 | 0.0 | 1.6 | 0.00 | 0.00 | 0.00 | 71 | 1009.0 |
| 20260506013010 | 15 | 154 | 0.0 | 1.6 | 0.00 | 0.00 | 0.00 | 69 | 1009.1 |
| 20260506012505 | 15 | 284 | 0.0 | 1.6 | 0.00 | 0.00 | 0.00 | 69 | 1009.2 |
| 20260506012007 | 15 | 152 | 0.0 | 1.6 | 0.00 | 0.00 | 0.00 | 69 | 1009.1 |
| 20260506011516 | 15 | 153 | 0.0 | 3.2 | 0.00 | 0.00 | 0.00 | 70 | 1009.0 |
| 20260506011002 | 15 | 138 | 1.6 | 3.2 | 0.00 | 0.00 | 0.00 | 70 | 1008.8 |
| 20260506010504 | 15 | 169 | 0.0 | 1.6 | 0.00 | 0.00 | 0.00 | 69 | 1008.9 |
| 20260506010002 | 15 | 169 | 0.0 | 1.6 | 0.00 | 0.00 | 0.00 | 68 | 1008.8 |
| 20260506005507 | 15 | 229 | 0.0 | 3.2 | 0.00 | 0.00 | 0.00 | 69 | 1008.8 |
| 20260506005003 | 15 | 155 | 0.0 | 3.2 | 0.00 | 0.00 | 0.00 | 69 | 1008.7 |
| 20260506004519 | 15 | 190 | 0.0 | 1.6 | 0.00 | 0.00 | 0.00 | 69 | 1008.7 |
| 20260506004004 | 15 | 191 | 1.6 | 1.6 | 0.00 | 0.00 | 0.00 | 69 | 1008.6 |
| 20260506003505 | 16 | 191 | 1.6 | 1.6 | 0.00 | 0.00 | 0.00 | 70 | 1008.6 |
| 20260506003011 | 16 | 212 | 1.6 | 3.2 | 0.00 | 0.00 | 0.00 | 69 | 1008.6 |
| 20260506002509 | 16 | 228 | 0.0 | 4.8 | 0.00 | 0.00 | 0.00 | 69 | 1008.4 |
| 20260506002007 | 16 | 278 | 0.0 | 4.8 | 0.00 | 0.00 | 0.00 | 69 | 1008.0 |
| 20260506001516 | 16 | 131 | 1.6 | 3.2 | 0.00 | 0.00 | 0.00 | 71 | 1007.6 |
| 20260506001006 | 16 | 137 | 0.0 | 6.4 | 0.00 | 0.00 | 0.00 | 70 | 1007.4 |
| 20260506000508 | 16 | 138 | 1.6 | 6.4 | 0.00 | 0.00 | 0.00 | 70 | 1007.3 |
| 20260506000005 | 16 | 122 | 3.2 | 4.8 | 0.00 | 0.00 | 0.00 | 71 | 1006.9 |
| 20260505235504 | 16 | 120 | 1.6 | 3.2 | 0.00 | 0.00 | 0.00 | 70 | 1006.9 |
| 20260505235002 | 16 | 108 | 1.6 | 1.6 | 0.00 | 0.00 | 0.00 | 70 | 1007.1 |
| 20260505234506 | 16 | 112 | 0.0 | 3.2 | 0.00 | 0.00 | 0.00 | 71 | 1007.5 |
| 20260505234001 | 16 | 112 | 0.0 | 3.2 | 0.00 | 0.00 | 0.00 | 71 | 1007.5 |
| 20260505233505 | 16 | 109 | 1.6 | 3.2 | 0.00 | 0.00 | 0.00 | 71 | 1007.6 |
| 20260505233006 | 16 | 333 | 0.0 | 1.6 | 0.00 | 0.00 | 0.00 | 68 | 1007.6 |
| 20260505232503 | 16 | 333 | 0.0 | 3.2 | 0.00 | 0.00 | 0.00 | 68 | 1007.4 |
| 20260505232005 | 16 | 20 | 0.0 | 3.2 | 0.00 | 0.00 | 0.00 | 65 | 1007.4 |
| 20260505231514 | 16 | 245 | 0.0 | 6.4 | 0.00 | 0.00 | 0.00 | 64 | 1007.4 |
| 20260505231006 | 16 | 262 | 0.0 | 6.4 | 0.00 | 0.00 | 0.00 | 65 | 1007.6 |
| 20260505230507 | 16 | 248 | 3.2 | 9.7 | 0.00 | 0.00 | 0.00 | 65 | 1007.6 |
| 20260505230029 | 16 | 266 | 4.8 | 9.7 | 0.00 | 0.00 | 0.00 | 65 | 1007.7 |
| 20260505225508 | 16 | 156 | 1.6 | 4.8 | 0.00 | 0.00 | 0.00 | 65 | 1006.2 |
| 20260505225007 | 16 | 150 | 1.6 | 8.0 | 0.00 | 0.00 | 0.00 | 64 | 1005.9 |
| 20260505224504 | 16 | 153 | 3.2 | 8.0 | 0.00 | 0.00 | 0.00 | 64 | 1005.7 |
| 20260505224002 | 16 | 152 | 1.6 | 6.4 | 0.00 | 0.00 | 0.00 | 63 | 1005.7 |
| 20260505223504 | 16 | 126 | 3.2 | 9.7 | 0.00 | 0.00 | 0.00 | 62 | 1005.6 |
| 20260505223004 | 17 | 302 | 4.8 | 11.3 | 0.00 | 0.00 | 0.00 | 62 | 1005.6 |
| 20260505222504 | 17 | 206 | 4.8 | 11.3 | 0.00 | 0.00 | 0.00 | 62 | 1005.6 |
| 20260505222010 | 17 | 263 | 1.6 | 9.7 | 0.00 | 0.00 | 0.00 | 62 | 1005.6 |
| 20260505221508 | 17 | 239 | 3.2 | 11.3 | 0.00 | 0.00 | 0.00 | 62 | 1005.5 |
| 20260505221006 | 17 | 293 | 4.8 | 14.5 | 0.00 | 0.00 | 0.00 | 61 | 1005.3 |
| 20260505220507 | 17 | 204 | 6.4 | 14.5 | 0.00 | 0.00 | 0.00 | 61 | 1005.4 |
| 20260505220016 | 17 | 221 | 4.8 | 9.7 | 0.00 | 0.00 | 0.00 | 60 | 1005.2 |
| 20260505215507 | 17 | 218 | 4.8 | 9.7 | 0.00 | 0.00 | 0.00 | 60 | 1005.2 |
| 20260505215006 | 17 | 162 | 3.2 | 22.5 | 0.00 | 0.00 | 0.00 | 60 | 1005.4 |
| 20260505214520 | 17 | 205 | 4.8 | 22.5 | 0.00 | 0.00 | 0.00 | 61 | 1005.4 |
| 20260505214009 | 17 | 212 | 3.2 | 16.1 | 0.00 | 0.00 | 0.00 | 61 | 1005.3 |
| 20260505213503 | 17 | 232 | 4.8 | 14.5 | 0.00 | 0.00 | 0.00 | 61 | 1005.3 |
| 20260505213007 | 17 | 192 | 4.8 | 9.7 | 0.00 | 0.00 | 0.00 | 61 | 1005.2 |
| 20260505212506 | 17 | 228 | 4.8 | 11.3 | 0.00 | 0.00 | 0.00 | 61 | 1005.3 |
| 20260505212005 | 17 | 127 | 3.2 | 11.3 | 0.00 | 0.00 | 0.00 | 61 | 1005.1 |
| 20260505211513 | 17 | 188 | 3.2 | 9.7 | 0.00 | 0.00 | 0.00 | 60 | 1005.1 |
| 20260505211003 | 18 | 110 | 4.8 | 11.3 | 0.00 | 0.00 | 0.00 | 60 | 1005.0 |
| 20260505210506 | 18 | 209 | 4.8 | 11.3 | 0.00 | 0.00 | 0.00 | 59 | 1005.0 |
| 20260505210013 | 18 | 191 | 6.4 | 16.1 | 0.00 | 0.00 | 0.00 | 59 | 1005.1 |
| 20260505205513 | 18 | 85 | 8.0 | 16.1 | 0.00 | 0.00 | 0.00 | 58 | 1005.2 |
| 20260505205007 | 18 | 183 | 6.4 | 12.9 | 0.00 | 0.00 | 0.00 | 58 | 1004.9 |
| 20260505204515 | 18 | 224 | 4.8 | 14.5 | 0.00 | 0.00 | 0.00 | 58 | 1004.9 |
| 20260505204008 | 18 | 208 | 4.8 | 14.5 | 0.00 | 0.00 | 0.00 | 58 | 1005.0 |
| 20260505203508 | 18 | 225 | 4.8 | 17.7 | 0.00 | 0.00 | 0.00 | 58 | 1005.0 |
| 20260505203020 | 18 | 248 | 3.2 | 17.7 | 0.00 | 0.00 | 0.00 | 58 | 1005.1 |
| 20260505202508 | 19 | 222 | 4.8 | 9.7 | 0.00 | 0.00 | 0.00 | 57 | 1005.0 |
| 20260505202004 | 19 | 224 | 4.8 | 9.7 | 0.00 | 0.00 | 0.00 | 58 | 1005.1 |
| 20260505201506 | 19 | 150 | 4.8 | 12.9 | 0.00 | 0.00 | 0.00 | 57 | 1005.1 |
| 20260505201005 | 19 | 136 | 3.2 | 12.9 | 0.00 | 0.00 | 0.00 | 57 | 1005.2 |
| 20260505200505 | 19 | 238 | 3.2 | 12.9 | 0.00 | 0.00 | 0.00 | 57 | 1005.3 |
| 20260505200009 | 19 | 278 | 4.8 | 14.5 | 0.00 | 0.00 | 0.00 | 56 | 1005.3 |
| 20260505195503 | 20 | 105 | 4.8 | 14.5 | 0.00 | 0.00 | 0.00 | 57 | 1005.3 |
| 20260505195007 | 20 | 195 | 3.2 | 12.9 | 0.00 | 0.00 | 0.00 | 56 | 1005.4 |
| 20260505194514 | 20 | 226 | 4.8 | 12.9 | 0.00 | 0.00 | 0.00 | 55 | 1005.4 |
| 20260505194012 | 20 | 122 | 3.2 | 11.3 | 0.00 | 0.00 | 0.00 | 55 | 1005.5 |
| 20260505193512 | 20 | 153 | 1.6 | 12.9 | 0.00 | 0.00 | 0.00 | 56 | 1005.5 |
| 20260505193022 | 20 | 171 | 4.8 | 12.9 | 0.00 | 0.00 | 0.00 | 56 | 1005.5 |
| 20260505192509 | 20 | 176 | 4.8 | 9.7 | 0.00 | 0.00 | 0.00 | 54 | 1005.7 |
| 20260505192009 | 20 | 95 | 4.8 | 9.7 | 0.00 | 0.00 | 0.00 | 55 | 1005.8 |
| 20260505191531 | 20 | 167 | 1.6 | 11.3 | 0.00 | 0.00 | 0.00 | 55 | 1006.0 |
| 20260505191004 | 20 | 146 | 4.8 | 11.3 | 0.00 | 0.00 | 0.00 | 55 | 1006.2 |
| 20260505190503 | 20 | 164 | 3.2 | 9.7 | 0.00 | 0.00 | 0.00 | 55 | 1006.2 |
| 20260505190011 | 20 | 240 | 4.8 | 9.7 | 0.00 | 0.00 | 0.00 | 55 | 1006.2 |
| 20260505185504 | 20 | 184 | 3.2 | 14.5 | 0.00 | 0.00 | 0.00 | 57 | 1006.2 |
| 20260505185006 | 19 | 200 | 4.8 | 14.5 | 0.00 | 0.00 | 0.00 | 56 | 1006.3 |
| 20260505184512 | 19 | 220 | 4.8 | 11.3 | 0.00 | 0.00 | 0.00 | 56 | 1006.5 |
| 20260505184008 | 19 | 191 | 4.8 | 9.7 | 0.00 | 0.00 | 0.00 | 57 | 1006.4 |
| 20260505183506 | 19 | 255 | 3.2 | 9.7 | 0.00 | 0.00 | 0.00 | 57 | 1006.6 |
| 20260505183021 | 19 | 231 | 4.8 | 9.7 | 0.00 | 0.00 | 0.00 | 57 | 1006.7 |
| 20260505182509 | 19 | 113 | 3.2 | 9.7 | 0.00 | 0.00 | 0.00 | 57 | 1006.7 |
| 20260505182013 | 19 | 243 | 3.2 | 9.7 | 0.00 | 0.00 | 0.00 | 57 | 1006.8 |
| 20260505181522 | 19 | 115 | 1.6 | 9.7 | 0.00 | 0.00 | 0.00 | 58 | 1006.8 |
| 20260505181010 | 18 | 198 | 3.2 | 11.3 | 0.00 | 0.00 | 0.00 | 58 | 1006.8 |
| 20260505180510 | 19 | 228 | 3.2 | 11.3 | 0.00 | 0.00 | 0.00 | 58 | 1006.8 |
| 20260505180026 | 19 | 102 | 1.6 | 12.9 | 0.00 | 0.00 | 0.00 | 57 | 1006.7 |
| 20260505175505 | 19 | 149 | 4.8 | 12.9 | 0.00 | 0.00 | 0.00 | 57 | 1006.8 |
| 20260505175004 | 19 | 194 | 1.6 | 9.7 | 0.00 | 0.00 | 0.00 | 57 | 1006.8 |
| 20260505174510 | 19 | 106 | 1.6 | 9.7 | 0.00 | 0.00 | 0.00 | 57 | 1006.9 |
| 20260505174010 | 19 | 210 | 1.6 | 8.0 | 0.00 | 0.00 | 0.00 | 57 | 1006.9 |
| 20260505173507 | 20 | 225 | 3.2 | 8.0 | 0.00 | 0.00 | 0.00 | 55 | 1007.1 |
| 20260505173017 | 20 | 208 | 3.2 | 11.3 | 0.00 | 0.00 | 0.00 | 55 | 1007.1 |
| 20260505172510 | 20 | 157 | 3.2 | 11.3 | 0.00 | 0.00 | 0.00 | 55 | 1007.2 |
| 20260505172011 | 20 | 177 | 4.8 | 8.0 | 0.00 | 0.00 | 0.00 | 54 | 1007.3 |
| 20260505171531 | 20 | 180 | 3.2 | 8.0 | 0.00 | 0.00 | 0.00 | 54 | 1007.4 |
| 20260505171011 | 20 | 206 | 4.8 | 8.0 | 0.00 | 0.00 | 0.00 | 55 | 1007.3 |
| 20260505170509 | 20 | 114 | 3.2 | 9.7 | 0.00 | 0.00 | 0.00 | 55 | 1007.4 |
| 20260505170024 | 20 | 128 | 3.2 | 11.3 | 0.00 | 0.00 | 0.00 | 55 | 1007.5 |
| 20260505165510 | 20 | 116 | 4.8 | 11.3 | 0.00 | 0.00 | 0.00 | 54 | 1007.6 |
| 20260505165016 | 20 | 195 | 3.2 | 6.4 | 0.00 | 0.00 | 0.00 | 55 | 1007.6 |
| 20260505164527 | 20 | 226 | 3.2 | 8.0 | 0.00 | 0.00 | 0.00 | 54 | 1007.7 |
| 20260505164004 | 20 | 138 | 1.6 | 8.0 | 0.00 | 0.00 | 0.00 | 55 | 1007.7 |
| 20260505163506 | 20 | 223 | 3.2 | 8.0 | 0.00 | 0.00 | 0.00 | 55 | 1007.8 |
| 20260505163014 | 20 | 167 | 3.2 | 8.0 | 0.00 | 0.00 | 0.00 | 55 | 1007.9 |
| 20260505162507 | 20 | 191 | 3.2 | 6.4 | 0.00 | 0.00 | 0.00 | 54 | 1008.0 |
| 20260505162008 | 20 | 115 | 3.2 | 9.7 | 0.00 | 0.00 | 0.00 | 55 | 1008.0 |
| 20260505161520 | 19 | 172 | 3.2 | 9.7 | 0.00 | 0.00 | 0.00 | 56 | 1008.1 |
| 20260505161008 | 19 | 135 | 1.6 | 8.0 | 0.00 | 0.00 | 0.00 | 57 | 1008.1 |
| 20260505160506 | 19 | 128 | 3.2 | 8.0 | 0.00 | 0.00 | 0.00 | 56 | 1008.2 |
| 20260505153030 | 16 | 103 | 3.2 | 8.0 | 0.00 | 0.00 | 0.00 | 65 | 1008.8 |
| 20260505152504 | 16 | 103 | 3.2 | 8.0 | 0.00 | 0.00 | 0.00 | 66 | 1008.8 |
| 20260505152008 | 15 | 75 | 4.8 | 8.0 | 0.00 | 0.00 | 0.00 | 67 | 1008.9 |
| 20260505151506 | 15 | 168 | 3.2 | 6.4 | 0.00 | 0.00 | 0.00 | 68 | 1009.1 |
| 20260505151003 | 15 | 232 | 3.2 | 6.4 | 0.00 | 0.00 | 0.00 | 71 | 1009.1 |
| 20260505150503 | 14 | 221 | 1.6 | 6.4 | 0.00 | 0.00 | 0.00 | 70 | 1009.3 |
| 20260505140509 | 16 | 129 | 1.6 | 8.0 | 0.00 | 0.00 | 0.00 | 66 | 1008.5 |
| 20260505125003 | 13 | 75 | 3.2 | 4.8 | 0.00 | 0.00 | 0.00 | 68 | 1008.7 |
| 20260505124507 | 13 | 269 | 3.2 | 4.8 | 0.00 | 0.00 | 0.00 | 68 | 1008.8 |
| 20260505124006 | 13 | 126 | 1.6 | 6.4 | 0.00 | 0.00 | 0.00 | 70 | 1008.6 |
| 20260505123506 | 13 | 124 | 3.2 | 6.4 | 0.00 | 0.00 | 0.00 | 69 | 1008.6 |
| 20260505123004 | 13 | 164 | 1.6 | 3.2 | 0.00 | 0.00 | 0.00 | 70 | 1008.8 |
| 20260505122503 | 13 | 266 | 1.6 | 3.2 | 0.00 | 0.00 | 0.00 | 70 | 1008.8 |
| 20260505122008 | 13 | 188 | 1.6 | 3.2 | 0.00 | 0.00 | 0.00 | 70 | 1008.8 |
| 20260505121508 | 13 | 122 | 1.6 | 4.8 | 0.00 | 0.00 | 0.00 | 71 | 1008.8 |
| 20260505121006 | 12 | 181 | 1.6 | 4.8 | 0.00 | 0.00 | 0.00 | 70 | 1009.0 |
| 20260505120508 | 12 | 227 | 1.6 | 4.8 | 0.00 | 0.00 | 0.00 | 71 | 1009.0 |
| 20260505120011 | 12 | 246 | 1.6 | 4.8 | 0.00 | 0.00 | 0.00 | 71 | 1009.0 |
| 20260505115507 | 12 | 125 | 1.6 | 4.8 | 0.00 | 0.00 | 0.00 | 72 | 1009.0 |
| 20260505115007 | 12 | 105 | 1.6 | 4.8 | 0.00 | 0.00 | 0.00 | 73 | 1009.1 |
| 20260505114520 | 12 | 136 | 1.6 | 4.8 | 0.00 | 0.00 | 0.00 | 74 | 1009.1 |
| 20260505114009 | 11 | 143 | 1.6 | 4.8 | 0.00 | 0.00 | 0.00 | 75 | 1009.2 |
| 20260505113504 | 11 | 150 | 0.0 | 3.2 | 0.00 | 0.00 | 0.00 | 77 | 1009.4 |
| 20260505113004 | 10 | 91 | 0.0 | 3.2 | 0.00 | 0.00 | 0.00 | 79 | 1009.1 |
| 20260505112505 | 10 | 156 | 0.0 | 1.6 | 0.00 | 0.00 | 0.00 | 80 | 1009.3 |
| 20260505112003 | 10 | 156 | 0.0 | 1.6 | 0.00 | 0.00 | 0.00 | 80 | 1009.3 |
| 20260505111506 | 10 | 158 | 1.6 | 1.6 | 0.00 | 0.00 | 0.00 | 80 | 1009.3 |
| 20260505111004 | 10 | 135 | 0.0 | 1.6 | 0.00 | 0.00 | 0.00 | 81 | 1009.3 |
| 20260505110504 | 9 | 245 | 0.0 | 1.6 | 0.00 | 0.00 | 0.00 | 82 | 1009.3 |
| 20260505102005 | 8 | 101 | 0.0 | 1.6 | 0.00 | 0.00 | 0.00 | 83 | 1009.3 |
| 20260505101505 | 8 | 99 | 0.0 | 1.6 | 0.00 | 0.00 | 0.00 | 83 | 1009.2 |
| 20260505101004 | 8 | 99 | 0.0 | 1.6 | 0.00 | 0.00 | 0.00 | 83 | 1009.1 |
| 20260505100504 | 8 | 123 | 0.0 | 1.6 | 0.00 | 0.00 | 0.00 | 83 | 1009.1 |
| 20260505100008 | 8 | 122 | 0.0 | 1.6 | 0.00 | 0.00 | 0.00 | 83 | 1009.2 |
| 20260505095507 | 8 | 113 | 0.0 | 1.6 | 0.00 | 0.00 | 0.00 | 83 | 1009.1 |
| 20260505095014 | 8 | 113 | 1.6 | 1.6 | 0.00 | 0.00 | 0.00 | 83 | 1009.0 |
| 20260505094514 | 8 | 114 | 0.0 | 1.6 | 0.00 | 0.00 | 0.00 | 83 | 1009.2 |
| 20260505094008 | 8 | 115 | 0.0 | 1.6 | 0.00 | 0.00 | 0.00 | 83 | 1009.1 |
| 20260505093507 | 7 | 114 | 0.0 | 3.2 | 0.00 | 0.00 | 0.00 | 83 | 1009.1 |
| 20260505093018 | 7 | 108 | 0.0 | 3.2 | 0.00 | 0.00 | 0.00 | 83 | 1009.1 |
| 20260505092509 | 7 | 104 | 0.0 | 3.2 | 0.00 | 0.00 | 0.00 | 83 | 1009.2 |
| 20260505092008 | 7 | 119 | 0.0 | 3.2 | 0.00 | 0.00 | 0.00 | 83 | 1009.2 |
| 20260505091524 | 7 | 122 | 0.0 | 3.2 | 0.00 | 0.00 | 0.00 | 82 | 1009.2 |
| 20260505091004 | 8 | 124 | 0.0 | 3.2 | 0.00 | 0.00 | 0.00 | 82 | 1009.2 |
| 20260505090504 | 8 | 120 | 1.6 | 3.2 | 0.00 | 0.00 | 0.00 | 82 | 1009.2 |
| 20260505090009 | 8 | 124 | 0.0 | 3.2 | 0.00 | 0.00 | 0.00 | 81 | 1009.3 |
| 20260505085504 | 8 | 125 | 0.0 | 3.2 | 0.00 | 0.00 | 0.00 | 82 | 1009.2 |
| 20260505085004 | 8 | 114 | 1.6 | 3.2 | 0.00 | 0.00 | 0.00 | 81 | 1009.4 |
| 20260505084512 | 8 | 114 | 1.6 | 3.2 | 0.00 | 0.00 | 0.00 | 81 | 1009.3 |
| 20260505084004 | 8 | 134 | 1.6 | 3.2 | 0.00 | 0.00 | 0.00 | 80 | 1009.3 |
| 20260505083509 | 8 | 124 | 0.0 | 1.6 | 0.00 | 0.00 | 0.00 | 80 | 1009.3 |
| 20260505083016 | 8 | 126 | 0.0 | 1.6 | 0.00 | 0.00 | 0.00 | 80 | 1009.4 |
| 20260505082510 | 8 | 122 | 1.6 | 1.6 | 0.00 | 0.00 | 0.00 | 80 | 1009.4 |
| 20260505082010 | 8 | 121 | 0.0 | 1.6 | 0.00 | 0.00 | 0.00 | 80 | 1009.4 |
| 20260505081523 | 8 | 120 | 0.0 | 1.6 | 0.00 | 0.00 | 0.00 | 80 | 1009.2 |
| 20260505081007 | 8 | 120 | 0.0 | 1.6 | 0.00 | 0.00 | 0.00 | 79 | 1009.4 |
| 20260505080512 | 8 | 120 | 1.6 | 3.2 | 0.00 | 0.00 | 0.00 | 79 | 1009.4 |
| 20260505080025 | 8 | 120 | 1.6 | 3.2 | 0.00 | 0.00 | 0.00 | 78 | 1009.3 |
| 20260505075503 | 8 | 120 | 1.6 | 1.6 | 0.00 | 0.00 | 0.00 | 78 | 1009.4 |
| 20260505075006 | 9 | 122 | 1.6 | 1.6 | 0.00 | 0.00 | 0.00 | 77 | 1009.4 |
| 20260505074508 | 9 | 123 | 1.6 | 1.6 | 0.00 | 0.00 | 0.00 | 75 | 1009.4 |
| 20260505074004 | 10 | 124 | 1.6 | 1.6 | 0.00 | 0.00 | 0.00 | 74 | 1009.3 |
| 20260505073507 | 10 | 127 | 1.6 | 1.6 | 0.00 | 0.00 | 0.00 | 73 | 1009.3 |
| 20260505073016 | 10 | 136 | 0.0 | 1.6 | 0.00 | 0.00 | 0.00 | 71 | 1009.3 |
| 20260505072509 | 10 | 166 | 0.0 | 1.6 | 0.00 | 0.00 | 0.00 | 71 | 1009.2 |
| 20260505072009 | 10 | 166 | 0.0 | 1.6 | 0.00 | 0.00 | 0.00 | 70 | 1009.2 |
| 20260505071516 | 10 | 166 | 0.0 | 0.0 | 0.00 | 0.00 | 0.00 | 70 | 1009.1 |
| 20260505071010 | 11 | 166 | 0.0 | 0.0 | 0.00 | 0.00 | 0.00 | 69 | 1008.9 |
| 20260505070503 | 11 | 166 | 0.0 | 0.0 | 0.00 | 0.00 | 0.00 | 68 | 1009.0 |
| 20260505070004 | 11 | 166 | 0.0 | 0.0 | 0.00 | 0.00 | 0.00 | 68 | 1009.2 |
| 20260505065504 | 11 | 166 | 0.0 | 0.0 | 0.00 | 0.00 | 0.00 | 67 | 1009.2 |
| 20260505065003 | 11 | 166 | 0.0 | 1.6 | 0.00 | 0.00 | 0.00 | 64 | 1009.2 |
| 20260505064508 | 12 | 220 | 0.0 | 1.6 | 0.00 | 0.00 | 0.00 | 65 | 1009.2 |
| 20260505064008 | 12 | 220 | 0.0 | 1.6 | 0.00 | 0.00 | 0.00 | 63 | 1009.1 |
| 20260505063504 | 12 | 220 | 0.0 | 1.6 | 0.00 | 0.00 | 0.00 | 63 | 1009.2 |
| 20260505063012 | 12 | 220 | 0.0 | 1.6 | 0.00 | 0.00 | 0.00 | 62 | 1009.2 |
| 20260505062503 | 12 | 221 | 0.0 | 1.6 | 0.00 | 0.00 | 0.00 | 62 | 1009.1 |
| 20260505062003 | 12 | 220 | 0.0 | 1.6 | 0.00 | 0.00 | 0.00 | 61 | 1009.1 |
| 20260505061505 | 12 | 219 | 0.0 | 1.6 | 0.00 | 0.00 | 0.00 | 62 | 1009.2 |
| 20260505061002 | 12 | 219 | 0.0 | 1.6 | 0.00 | 0.00 | 0.00 | 61 | 1009.2 |
| 20260505060504 | 12 | 267 | 0.0 | 1.6 | 0.00 | 0.00 | 0.00 | 62 | 1009.2 |
| 20260505060005 | 12 | 297 | 0.0 | 1.6 | 0.00 | 0.00 | 0.00 | 62 | 1009.1 |
| 20260505055504 | 12 | 297 | 0.0 | 1.6 | 0.00 | 0.00 | 0.00 | 62 | 1009.2 |
| 20260505055004 | 12 | 297 | 0.0 | 1.6 | 0.00 | 0.00 | 0.00 | 62 | 1009.2 |
| 20260505054516 | 12 | 297 | 0.0 | 1.6 | 0.00 | 0.00 | 0.00 | 62 | 1009.1 |
| 20260505054004 | 12 | 297 | 0.0 | 1.6 | 0.00 | 0.00 | 0.00 | 61 | 1009.2 |
| 20260505053509 | 12 | 297 | 0.0 | 1.6 | 0.00 | 0.00 | 0.00 | 61 | 1009.2 |
| 20260505053008 | 13 | 296 | 0.0 | 1.6 | 0.00 | 0.00 | 0.00 | 60 | 1009.1 |
| 20260505052508 | 13 | 297 | 0.0 | 3.2 | 0.00 | 0.00 | 0.00 | 59 | 1008.9 |
| 20260505052006 | 13 | 300 | 1.6 | 3.2 | 0.00 | 0.00 | 0.00 | 60 | 1008.8 |
| 20260505051503 | 13 | 219 | 1.6 | 1.6 | 0.00 | 0.00 | 0.00 | 59 | 1008.8 |
| 20260505051003 | 13 | 134 | 0.0 | 1.6 | 0.00 | 0.00 | 0.00 | 59 | 1008.8 |
| 20260505050502 | 13 | 239 | 0.0 | 3.2 | 0.00 | 0.00 | 0.00 | 59 | 1008.8 |
| 20260505041512 | 12 | 220 | 1.6 | 3.2 | 0.00 | 0.00 | 0.00 | 62 | 1008.5 |
| 20260505041008 | 12 | 219 | 1.6 | 3.2 | 0.00 | 0.00 | 0.00 | 64 | 1008.3 |
| 20260505040508 | 12 | 231 | 0.0 | 3.2 | 0.00 | 0.00 | 0.00 | 64 | 1008.3 |
| 20260505040005 | 12 | 226 | 1.6 | 3.2 | 0.00 | 0.00 | 0.00 | 66 | 1008.4 |
| 20260505035502 | 12 | 203 | 0.0 | 3.2 | 0.00 | 0.00 | 0.00 | 66 | 1008.4 |
| 20260505035003 | 11 | 233 | 1.6 | 4.8 | 0.00 | 0.00 | 0.00 | 67 | 1008.4 |
| 20260505034504 | 11 | 229 | 1.6 | 4.8 | 0.00 | 0.00 | 0.00 | 69 | 1008.5 |
| 20260505034004 | 11 | 184 | 0.0 | 1.6 | 0.00 | 0.00 | 0.00 | 71 | 1008.4 |
| 20260505033504 | 11 | 221 | 0.0 | 1.6 | 0.00 | 0.00 | 0.00 | 71 | 1008.5 |
| 20260505033010 | 11 | 194 | 0.0 | 1.6 | 0.00 | 0.00 | 0.00 | 72 | 1008.5 |
| 20260505032505 | 10 | 194 | 0.0 | 1.6 | 0.00 | 0.00 | 0.00 | 73 | 1008.5 |
| 20260505032004 | 10 | 245 | 0.0 | 1.6 | 0.00 | 0.00 | 0.00 | 74 | 1008.5 |
| 20260505031510 | 10 | 218 | 0.0 | 1.6 | 0.00 | 0.00 | 0.00 | 75 | 1008.5 |
| 20260505031006 | 10 | 193 | 0.0 | 1.6 | 0.00 | 0.00 | 0.00 | 77 | 1008.4 |
| 20260505030506 | 10 | 205 | 0.0 | 3.2 | 0.00 | 0.00 | 0.00 | 77 | 1008.4 |
| 20260505030033 | 10 | 224 | 0.0 | 3.2 | 0.00 | 0.00 | 0.00 | 78 | 1008.3 |
| 20260505025513 | 9 | 141 | 0.0 | 1.6 | 0.00 | 0.00 | 0.00 | 78 | 1008.3 |
| 20260505025004 | 9 | 138 | 0.0 | 1.6 | 0.00 | 0.00 | 0.00 | 78 | 1008.3 |
| 20260505024504 | 9 | 138 | 0.0 | 1.6 | 0.00 | 0.00 | 0.00 | 78 | 1008.3 |
| 20260505024002 | 9 | 137 | 0.0 | 1.6 | 0.00 | 0.00 | 0.00 | 78 | 1008.3 |
| 20260505023504 | 9 | 181 | 0.0 | 1.6 | 0.00 | 0.00 | 0.00 | 78 | 1008.3 |
| 20260505023006 | 9 | 111 | 0.0 | 1.6 | 0.00 | 0.00 | 0.00 | 79 | 1008.3 |
| 20260505022505 | 9 | 111 | 0.0 | 1.6 | 0.00 | 0.00 | 0.00 | 79 | 1008.2 |
| 20260505022007 | 9 | 112 | 0.0 | 1.6 | 0.00 | 0.00 | 0.00 | 79 | 1008.2 |
| 20260505021508 | 8 | 112 | 0.0 | 1.6 | 0.00 | 0.00 | 0.00 | 79 | 1008.2 |
| 20260505021005 | 8 | 112 | 0.0 | 0.0 | 0.00 | 0.00 | 0.00 | 79 | 1008.1 |
| 20260505020503 | 9 | 112 | 0.0 | 1.6 | 0.00 | 0.00 | 0.00 | 79 | 1008.0 |
| 20260505020014 | 9 | 112 | 0.0 | 1.6 | 0.00 | 0.00 | 0.00 | 79 | 1008.0 |
| 20260505015507 | 9 | 112 | 0.0 | 1.6 | 0.00 | 0.00 | 0.00 | 79 | 1008.0 |